Location: Berlise
(49.6641°N, 4.1077°E)
Time: 19:44:12
(UTC+00:00)

USA 308 - Visible Passes

Search period start: 07 May 2021 00:00
Search period end: 17 May 2021 00:00
Orbit: 568 x 576 km, 54.0° (Epoch: 05 May)

Date Brightness Start Highest point End Pass type
(mag) Time Alt. Az. Time Alt. Az. Time Alt. Az.
07 May 3.4 21:15:39 10° WNW 21:19:54 58° NNE 21:23:00 18° E visible
07 May 3.5 22:55:44 10° WNW 22:59:06 43° WSW 22:59:06 43° WSW visible
08 May 3.1 21:17:26 10° WNW 21:21:44 69° NNE 21:24:23 22° E visible
08 May 4.0 22:57:36 10° WNW 23:00:29 31° WSW 23:00:29 31° WSW visible
09 May 2.9 21:19:13 10° WNW 21:23:32 85° NNE 21:25:48 27° ESE visible
09 May 4.5 22:59:35 10° W 23:01:54 22° WSW 23:01:54 22° WSW visible
10 May 2.8 21:20:59 10° WNW 21:25:16 76° SSW 21:27:15 31° SE visible
10 May 5.0 23:01:44 10° W 23:03:21 16° WSW 23:03:21 16° WSW visible
11 May 3.1 21:22:46 10° WNW 21:26:59 57° SW 21:28:43 32° SSE visible
11 May 5.3 23:04:19 10° W 23:04:49 11° WSW 23:04:49 11° WSW visible
12 May 3.5 21:24:36 10° WNW 21:28:39 41° SW 21:30:14 29° S visible
13 May 4.1 21:26:31 10° WNW 21:30:15 30° SW 21:31:45 24° S visible
14 May 4.6 21:28:33 10° W 21:31:49 21° SW 21:33:20 18° SSW visible
15 May 5.0 21:30:53 10° W 21:33:20 15° SW 21:34:57 12° SSW visible
